This is the latest recevied weather packets stored in our database for station/object OK2VOP-6. If no packets are shown the sender has not sent any weather packets the latest 10 day(s).
| Time | Temp. | Humidity | Pressure | Rain* | Wind** | Luminosity | Snow |
|---|---|---|---|---|---|---|---|
| 1788332485 | 17.22° C | 45% | - | 0 mm | - | - | - |
| 1788331280 | 16.67° C | 51% | - | 0 mm | - | - | - |
| 1788330075 | 16.11° C | 52% | - | 0 mm | - | - | - |
| 1788328870 | 15.56° C | 57% | - | 0 mm | - | - | - |
| 1788327666 | 15° C | 57% | - | 0 mm | - | - | - |
| 1788326461 | 14.44° C | 58% | - | 0 mm | - | - | - |
| 1788325256 | 13.33° C | 58% | - | 0 mm | - | - | - |
| 1788324051 | 13.33° C | 56% | - | 0 mm | - | - | - |
| 1788322846 | 13.33° C | 57% | - | 0 mm | - | - | - |
| 1788321642 | 13.33° C | 57% | - | 0 mm | - | - | - |
| 1788320437 | 13.33° C | 56% | - | 0 mm | - | - | - |
| 1788319232 | 13.33° C | 55% | - | 0 mm | - | - | - |
| 1788318027 | 13.33° C | 56% | - | 0 mm | - | - | - |
| 1788316822 | 13.89° C | 55% | - | 0 mm | - | - | - |
| 1788315617 | 13.89° C | 54% | - | 0 mm | - | - | - |
| 1788314412 | 13.89° C | 54% | - | 0 mm | - | - | - |
| 1788313208 | 13.89° C | 54% | - | 0 mm | - | - | - |
| 1788312003 | 13.89° C | 53% | - | 0 mm | - | - | - |
| 1788310798 | 13.89° C | 53% | - | 0 mm | - | - | - |
| 1788309593 | 13.89° C | 53% | - | 0 mm | - | - | - |
| 1788308388 | 13.89° C | 51% | - | 0 mm | - | - | - |
| 1788307183 | 14.44° C | 50% | - | 0 mm | - | - | - |
| 1788305979 | 14.44° C | 51% | - | 0 mm | - | - | - |
| 1788304774 | 14.44° C | 49% | - | 0 mm | - | - | - |
| 1788303569 | 15° C | 50% | - | 0 mm | - | - | - |
* Rain latest hour (hover to see other rain measurements)
** Current wind speed in m/s (hover to see current wind gust speed)